KAP136 KHPN-KHYA

Flight info

Callsign KAP136
Flight time 1h 9m
Altitude 11000
Route BAYYS SEALL V188 GON V374 MVY
Aircraft C208/L-SBDFGR/EB2

Departure

Time 2026-04-29 02:42
Airport Westchester County Airport (KHPN)

Arrival

Time 2026-04-29 03:51
Airport Cape Cod Gateway Airport (KHYA)
Time Latitude Longitude Altitude Speed Heading
2026-04-29 02:23 41.06728 -73.70408 538 ft 0 kts 60°
2026-04-29 02:36 41.06728 -73.70409 538 ft 2 kts 59°
2026-04-29 02:36 41.06718 -73.70431 419 ft 0 kts 59°
2026-04-29 02:37 41.06716 -73.70417 418 ft 6 kts 132°
2026-04-29 02:37 41.06675 -73.70431 419 ft 7 kts 187°
2026-04-29 02:37 41.06659 -73.70402 418 ft 6 kts
2026-04-29 02:37 41.06701 -73.70440 418 ft 14 kts 321°
2026-04-29 02:38 41.06816 -73.70548 418 ft 21 kts 327°
2026-04-29 02:38 41.06938 -73.70644 419 ft 20 kts 330°
2026-04-29 02:38 41.07052 -73.70731 419 ft 18 kts 329°
2026-04-29 02:38 41.07160 -73.70806 417 ft 17 kts 337°
2026-04-29 02:39 41.07268 -73.70869 415 ft 17 kts 336°
2026-04-29 02:39 41.07370 -73.70942 415 ft 17 kts 329°
2026-04-29 02:39 41.07468 -73.71022 419 ft 16 kts 332°
2026-04-29 02:39 41.07543 -73.71120 417 ft 16 kts 274°
2026-04-29 02:40 41.07547 -73.71168 419 ft 0 kts 276°
2026-04-29 02:40 41.07547 -73.71173 419 ft 9 kts 274°
2026-04-29 02:40 41.07508 -73.71307 420 ft 9 kts 140°
2026-04-29 02:40 41.07458 -73.71255 420 ft 0 kts 149°
2026-04-29 02:41 41.07361 -73.71182 420 ft 52 kts 153°
2026-04-29 02:41 41.06884 -73.70819 525 ft 91 kts 149°
2026-04-29 02:42 41.06347 -73.70372 857 ft 91 kts 144°
2026-04-29 02:42 41.05726 -73.70181 1025 ft 104 kts 204°
2026-04-29 02:42 41.05392 -73.71009 1159 ft 115 kts 272°
2026-04-29 02:42 41.05538 -73.72040 1397 ft 112 kts 285°
2026-04-29 02:43 41.06124 -73.72735 1512 ft 119 kts 345°
2026-04-29 02:43 41.06820 -73.73114 1877 ft 103 kts 310°
2026-04-29 02:43 41.07245 -73.73829 2220 ft 97 kts 308°
2026-04-29 02:43 41.07652 -73.74480 2598 ft 87 kts 306°
2026-04-29 02:44 41.08041 -73.75102 2872 ft 94 kts 306°
2026-04-29 02:44 41.08519 -73.75867 2896 ft 119 kts 307°
2026-04-29 02:44 41.09024 -73.76691 3127 ft 115 kts 307°
2026-04-29 02:44 41.09532 -73.77521 3320 ft 117 kts 307°
2026-04-29 02:45 41.10046 -73.78364 3487 ft 119 kts 307°
2026-04-29 02:45 41.10579 -73.79240 3569 ft 127 kts 307°
2026-04-29 02:45 41.11141 -73.80165 3692 ft 133 kts 308°
2026-04-29 02:45 41.11730 -73.81142 3867 ft 137 kts 307°
2026-04-29 02:46 41.12328 -73.82140 4065 ft 138 kts 307°
2026-04-29 02:46 41.12894 -73.83088 4439 ft 126 kts 307°
2026-04-29 02:46 41.13447 -73.84009 4681 ft 128 kts 307°
2026-04-29 02:46 41.14004 -73.84937 4936 ft 129 kts 307°
2026-04-29 02:47 41.14562 -73.85867 5193 ft 129 kts 307°
2026-04-29 02:47 41.15272 -73.86530 5394 ft 132 kts 352°
2026-04-29 02:47 41.16089 -73.86083 5645 ft 132 kts 47°
2026-04-29 02:47 41.16711 -73.85180 5883 ft 133 kts 46°
2026-04-29 02:48 41.17346 -73.84278 6116 ft 134 kts 47°
2026-04-29 02:48 41.17983 -73.83367 6348 ft 134 kts 47°
2026-04-29 02:48 41.18620 -73.82453 6575 ft 135 kts 47°
2026-04-29 02:48 41.19245 -73.81524 6789 ft 135 kts 56°
2026-04-29 02:49 41.19371 -73.80326 6998 ft 134 kts 102°
2026-04-29 02:49 41.19319 -73.79092 7212 ft 135 kts 83°
2026-04-29 02:49 41.19471 -73.77853 7426 ft 136 kts 81°
2026-04-29 02:49 41.19618 -73.76628 7637 ft 136 kts 82°
2026-04-29 02:50 41.19768 -73.75382 7846 ft 137 kts 82°
2026-04-29 02:50 41.19919 -73.74130 8070 ft 138 kts 82°
2026-04-29 02:50 41.20070 -73.72870 8302 ft 138 kts 82°
2026-04-29 02:50 41.20222 -73.71608 8531 ft 138 kts 82°
2026-04-29 02:51 41.20374 -73.70340 8758 ft 139 kts 81°
2026-04-29 02:51 41.20526 -73.69068 8980 ft 139 kts 82°
2026-04-29 02:51 41.20680 -73.67796 9197 ft 140 kts 82°
2026-04-29 02:51 41.20830 -73.66534 9409 ft 140 kts 82°
2026-04-29 02:52 41.20984 -73.65252 9607 ft 141 kts 82°
2026-04-29 02:52 41.21138 -73.63965 9832 ft 141 kts 82°
2026-04-29 02:52 41.21291 -73.62675 10036 ft 142 kts 82°
2026-04-29 02:52 41.21447 -73.61377 10239 ft 142 kts 82°
2026-04-29 02:53 41.21601 -73.60077 10440 ft 143 kts 82°
2026-04-29 02:53 41.21756 -73.58775 10637 ft 143 kts 82°
2026-04-29 02:53 41.21912 -73.57469 10833 ft 143 kts 82°
2026-04-29 02:53 41.22071 -73.56118 10883 ft 154 kts 82°
2026-04-29 02:54 41.22240 -73.54675 10890 ft 162 kts 82°
2026-04-29 02:54 41.22418 -73.53172 10889 ft 167 kts 82°
2026-04-29 02:54 41.22599 -73.51637 10891 ft 170 kts 82°
2026-04-29 02:54 41.22782 -73.50093 10889 ft 172 kts 82°
2026-04-29 02:55 41.22967 -73.48522 10890 ft 173 kts 82°
2026-04-29 02:55 41.23154 -73.46945 10890 ft 173 kts 82°
2026-04-29 02:55 41.23340 -73.45358 10890 ft 174 kts 82°
2026-04-29 02:55 41.23527 -73.43774 10890 ft 174 kts 82°
2026-04-29 02:56 41.23714 -73.42186 10890 ft 174 kts 82°
2026-04-29 02:56 41.23901 -73.40598 10890 ft 174 kts 82°
2026-04-29 02:56 41.24086 -73.39008 10890 ft 174 kts 82°
2026-04-29 02:56 41.24273 -73.37420 10890 ft 174 kts 82°
2026-04-29 02:57 41.24459 -73.35830 10890 ft 174 kts 82°
2026-04-29 02:57 41.24645 -73.34240 10890 ft 174 kts 82°
2026-04-29 02:57 41.24829 -73.32667 10890 ft 174 kts 82°
2026-04-29 02:57 41.25014 -73.31079 10890 ft 174 kts 82°
2026-04-29 02:58 41.25200 -73.29484 10890 ft 174 kts 82°
2026-04-29 02:58 41.25385 -73.27892 10889 ft 174 kts 82°
2026-04-29 02:58 41.25569 -73.26303 10889 ft 174 kts 82°
2026-04-29 02:58 41.25754 -73.24712 10889 ft 174 kts 82°
2026-04-29 02:59 41.25938 -73.23123 10890 ft 174 kts 82°
2026-04-29 02:59 41.26122 -73.21533 10889 ft 174 kts 82°
2026-04-29 02:59 41.26306 -73.19944 10889 ft 174 kts 82°
2026-04-29 02:59 41.26489 -73.18353 10889 ft 174 kts 82°
2026-04-29 03:00 41.26673 -73.16763 10889 ft 174 kts 82°
2026-04-29 03:00 41.26856 -73.15172 10889 ft 174 kts 82°
2026-04-29 03:00 41.27037 -73.13601 10889 ft 174 kts 82°
2026-04-29 03:00 41.27220 -73.12008 10889 ft 174 kts 82°
2026-04-29 03:01 41.27402 -73.10418 10889 ft 174 kts 82°
2026-04-29 03:01 41.27585 -73.08826 10888 ft 174 kts 82°
2026-04-29 03:01 41.27767 -73.07235 10889 ft 174 kts 82°
2026-04-29 03:01 41.27949 -73.05641 10888 ft 174 kts 82°
2026-04-29 03:02 41.28131 -73.04050 10888 ft 174 kts 82°
2026-04-29 03:02 41.28312 -73.02461 10889 ft 174 kts 82°
2026-04-29 03:02 41.28493 -73.00868 10888 ft 174 kts 82°
2026-04-29 03:02 41.28674 -72.99276 10888 ft 174 kts 82°
2026-04-29 03:03 41.28898 -72.97696 10882 ft 174 kts 71°
2026-04-29 03:03 41.29545 -72.96369 10872 ft 175 kts 45°
2026-04-29 03:03 41.30450 -72.95296 10875 ft 174 kts 42°
2026-04-29 03:03 41.31351 -72.94221 10876 ft 174 kts 42°
2026-04-29 03:04 41.32256 -72.93138 10877 ft 174 kts 42°
2026-04-29 03:04 41.33157 -72.92058 10877 ft 174 kts 42°
2026-04-29 03:04 41.34058 -72.90979 10877 ft 174 kts 42°
2026-04-29 03:04 41.34962 -72.89896 10877 ft 175 kts 42°
2026-04-29 03:05 41.35865 -72.88815 10877 ft 175 kts 42°
2026-04-29 03:05 41.36766 -72.87733 10877 ft 175 kts 42°
2026-04-29 03:05 41.37668 -72.86652 10877 ft 175 kts 42°
2026-04-29 03:05 41.38551 -72.85540 10875 ft 174 kts 50°
2026-04-29 03:06 41.39069 -72.84102 10875 ft 174 kts 77°
2026-04-29 03:06 41.39102 -72.82529 10879 ft 172 kts 98°
2026-04-29 03:06 41.38976 -72.80942 10883 ft 173 kts 96°
2026-04-29 03:06 41.38860 -72.79345 10885 ft 173 kts 97°
2026-04-29 03:07 41.38740 -72.77750 10887 ft 173 kts 97°
2026-04-29 03:07 41.38618 -72.76147 10887 ft 173 kts 97°
2026-04-29 03:07 41.38497 -72.74547 10887 ft 173 kts 97°
2026-04-29 03:07 41.38376 -72.72948 10887 ft 174 kts 97°
2026-04-29 03:08 41.38254 -72.71349 10887 ft 174 kts 97°
2026-04-29 03:08 41.38133 -72.69751 10887 ft 174 kts 97°
2026-04-29 03:08 41.38011 -72.68150 10887 ft 174 kts 97°
2026-04-29 03:08 41.37889 -72.66551 10886 ft 174 kts 97°
2026-04-29 03:09 41.37766 -72.64953 10886 ft 174 kts 97°
2026-04-29 03:09 41.37644 -72.63353 10886 ft 174 kts 97°
2026-04-29 03:09 41.37523 -72.61774 10887 ft 174 kts 97°
2026-04-29 03:09 41.37400 -72.60176 10886 ft 174 kts 97°
2026-04-29 03:10 41.37277 -72.58577 10886 ft 174 kts 97°
2026-04-29 03:10 41.37153 -72.56974 10886 ft 174 kts 97°
2026-04-29 03:10 41.37030 -72.55376 10886 ft 174 kts 97°
2026-04-29 03:10 41.36906 -72.53776 10886 ft 174 kts 97°
2026-04-29 03:11 41.36782 -72.52177 10886 ft 174 kts 97°
2026-04-29 03:11 41.36657 -72.50574 10886 ft 174 kts 97°
2026-04-29 03:11 41.36532 -72.48975 10886 ft 174 kts 97°
2026-04-29 03:11 41.36408 -72.47377 10886 ft 174 kts 97°
2026-04-29 03:12 41.36282 -72.45779 10885 ft 174 kts 97°
2026-04-29 03:12 41.36158 -72.44179 10886 ft 174 kts 97°
2026-04-29 03:12 41.36033 -72.42601 10885 ft 174 kts 97°
2026-04-29 03:12 41.35907 -72.41002 10885 ft 174 kts 97°
2026-04-29 03:13 41.35782 -72.39402 10885 ft 174 kts 97°
2026-04-29 03:13 41.35655 -72.37798 10885 ft 174 kts 97°
2026-04-29 03:13 41.35529 -72.36201 10885 ft 174 kts 97°
2026-04-29 03:13 41.35402 -72.34602 10885 ft 174 kts 97°
2026-04-29 03:14 41.35275 -72.33004 10885 ft 174 kts 97°
2026-04-29 03:14 41.35149 -72.31406 10885 ft 174 kts 97°
2026-04-29 03:14 41.35021 -72.29809 10885 ft 174 kts 97°
2026-04-29 03:14 41.34894 -72.28211 10885 ft 174 kts 97°
2026-04-29 03:15 41.34768 -72.26634 10885 ft 174 kts 97°
2026-04-29 03:15 41.34640 -72.25036 10885 ft 174 kts 97°
2026-04-29 03:15 41.34512 -72.23444 10885 ft 174 kts 97°
2026-04-29 03:15 41.34384 -72.21846 10885 ft 174 kts 97°
2026-04-29 03:16 41.34255 -72.20243 10885 ft 174 kts 97°
2026-04-29 03:16 41.34126 -72.18645 10884 ft 174 kts 97°
2026-04-29 03:16 41.33997 -72.17047 10885 ft 174 kts 97°
2026-04-29 03:16 41.33868 -72.15455 10885 ft 174 kts 97°
2026-04-29 03:17 41.33739 -72.13858 10884 ft 174 kts 97°
2026-04-29 03:17 41.33609 -72.12256 10885 ft 174 kts 97°
2026-04-29 03:17 41.33523 -72.11199 10885 ft 174 kts 97°
2026-04-29 03:17 41.33393 -72.09600 10884 ft 174 kts 97°
2026-04-29 03:18 41.33262 -72.08002 10884 ft 174 kts 97°
2026-04-29 03:18 41.33132 -72.06405 10884 ft 174 kts 97°
2026-04-29 03:18 41.33040 -72.04802 10880 ft 174 kts 89°
2026-04-29 03:18 41.33134 -72.03201 10880 ft 174 kts 86°
2026-04-29 03:19 41.33223 -72.01598 10880 ft 174 kts 87°
2026-04-29 03:19 41.33331 -71.99471 10881 ft 174 kts 87°
2026-04-29 03:19 41.33386 -71.98403 10881 ft 174 kts 87°
2026-04-29 03:19 41.33468 -71.96795 10881 ft 174 kts 87°
2026-04-29 03:20 41.33550 -71.95191 10881 ft 174 kts 87°
2026-04-29 03:20 41.33632 -71.93583 10881 ft 174 kts 87°
2026-04-29 03:20 41.33714 -71.91977 10881 ft 174 kts 87°
2026-04-29 03:20 41.33796 -71.90372 10881 ft 174 kts 87°
2026-04-29 03:21 41.33877 -71.88764 10880 ft 174 kts 87°
2026-04-29 03:21 41.33959 -71.87155 10880 ft 174 kts 87°
2026-04-29 03:21 41.34038 -71.85570 10880 ft 174 kts 87°
2026-04-29 03:21 41.34119 -71.83963 10880 ft 174 kts 87°
2026-04-29 03:22 41.34199 -71.82355 10880 ft 174 kts 87°
2026-04-29 03:22 41.34279 -71.80749 10880 ft 174 kts 87°
2026-04-29 03:22 41.34360 -71.79142 10880 ft 174 kts 87°
2026-04-29 03:22 41.34438 -71.77537 10880 ft 174 kts 87°
2026-04-29 03:23 41.34518 -71.75930 10880 ft 174 kts 87°
2026-04-29 03:23 41.34597 -71.74322 10880 ft 174 kts 87°
2026-04-29 03:23 41.34676 -71.72715 10880 ft 174 kts 87°
2026-04-29 03:23 41.34755 -71.71114 10880 ft 174 kts 87°
2026-04-29 03:24 41.34833 -71.69506 10880 ft 174 kts 87°
2026-04-29 03:24 41.34912 -71.67897 10880 ft 174 kts 87°
2026-04-29 03:24 41.34990 -71.66288 10880 ft 174 kts 87°
2026-04-29 03:24 41.35068 -71.64679 10879 ft 174 kts 87°
2026-04-29 03:25 41.35146 -71.63074 10879 ft 174 kts 87°
2026-04-29 03:25 41.35223 -71.61468 10879 ft 174 kts 87°
2026-04-29 03:25 41.35300 -71.59864 10879 ft 174 kts 87°
2026-04-29 03:25 41.35377 -71.58255 10879 ft 174 kts 87°
2026-04-29 03:26 41.35454 -71.56648 10879 ft 174 kts 87°
2026-04-29 03:26 41.35531 -71.55040 10879 ft 174 kts 87°
2026-04-29 03:26 41.35606 -71.53434 10879 ft 174 kts 87°
2026-04-29 03:26 41.35682 -71.51846 10879 ft 174 kts 87°
2026-04-29 03:27 41.35758 -71.50239 10879 ft 174 kts 87°
2026-04-29 03:27 41.35833 -71.48629 10879 ft 174 kts 87°
2026-04-29 03:27 41.35909 -71.47017 10879 ft 174 kts 87°
2026-04-29 03:27 41.35984 -71.45405 10879 ft 174 kts 87°
2026-04-29 03:28 41.36059 -71.43799 10879 ft 174 kts 87°
2026-04-29 03:28 41.36134 -71.42192 10879 ft 174 kts 87°
2026-04-29 03:28 41.36208 -71.40586 10879 ft 174 kts 87°
2026-04-29 03:28 41.36284 -71.38978 10879 ft 174 kts 87°
2026-04-29 03:29 41.36357 -71.37388 10879 ft 174 kts 87°
2026-04-29 03:29 41.36431 -71.35783 10879 ft 174 kts 87°
2026-04-29 03:29 41.36505 -71.34174 10879 ft 174 kts 87°
2026-04-29 03:29 41.36578 -71.32568 10879 ft 174 kts 87°
2026-04-29 03:30 41.36653 -71.30958 10878 ft 174 kts 87°
2026-04-29 03:30 41.36725 -71.29350 10878 ft 174 kts 87°
2026-04-29 03:30 41.36799 -71.27743 10878 ft 174 kts 87°
2026-04-29 03:30 41.36872 -71.26135 10878 ft 174 kts 87°
2026-04-29 03:31 41.37017 -71.22920 10878 ft 174 kts 87°
2026-04-29 03:31 41.37088 -71.21309 10878 ft 174 kts 87°
2026-04-29 03:31 41.37161 -71.19700 10878 ft 174 kts 88°
2026-04-29 03:32 41.37233 -71.18090 10878 ft 174 kts 87°
2026-04-29 03:32 41.37303 -71.16482 10878 ft 174 kts 88°
2026-04-29 03:32 41.37375 -71.14875 10878 ft 174 kts 88°
2026-04-29 03:32 41.37446 -71.13266 10878 ft 174 kts 87°
2026-04-29 03:33 41.37516 -71.11658 10878 ft 174 kts 88°
2026-04-29 03:33 41.37587 -71.10050 10878 ft 174 kts 88°
2026-04-29 03:33 41.37651 -71.08460 10878 ft 174 kts 88°
2026-04-29 03:33 41.37720 -71.06852 10878 ft 174 kts 88°
2026-04-29 03:34 41.37789 -71.05244 10878 ft 174 kts 87°
2026-04-29 03:34 41.37859 -71.03634 10878 ft 174 kts 88°
2026-04-29 03:34 41.37929 -71.02031 10878 ft 174 kts 88°
2026-04-29 03:34 41.37997 -71.00422 10878 ft 174 kts 88°
2026-04-29 03:35 41.38067 -70.98811 10878 ft 174 kts 88°
2026-04-29 03:35 41.38136 -70.97194 10863 ft 175 kts 88°
2026-04-29 03:35 41.38204 -70.95589 10873 ft 172 kts 88°
2026-04-29 03:35 41.38271 -70.94029 10873 ft 169 kts 88°
2026-04-29 03:36 41.38338 -70.92460 10813 ft 171 kts 88°
2026-04-29 03:36 41.38404 -70.90855 10687 ft 175 kts 88°
2026-04-29 03:36 41.38471 -70.89217 10517 ft 179 kts 88°
2026-04-29 03:36 41.38541 -70.87558 10346 ft 180 kts 88°
2026-04-29 03:37 41.38610 -70.85891 10147 ft 182 kts 88°
2026-04-29 03:37 41.38679 -70.84189 9845 ft 184 kts 88°
2026-04-29 03:37 41.38748 -70.82500 9519 ft 181 kts 88°
2026-04-29 03:37 41.38818 -70.80831 9192 ft 179 kts 88°
2026-04-29 03:38 41.38887 -70.79178 8864 ft 178 kts 88°
2026-04-29 03:38 41.38954 -70.77535 8538 ft 177 kts 88°
2026-04-29 03:38 41.39022 -70.75900 8210 ft 177 kts 88°
2026-04-29 03:38 41.39088 -70.74267 7888 ft 176 kts 88°
2026-04-29 03:39 41.39153 -70.72661 7568 ft 175 kts 88°
2026-04-29 03:39 41.39220 -70.71039 7242 ft 175 kts 88°
2026-04-29 03:39 41.39284 -70.69423 6922 ft 174 kts 88°
2026-04-29 03:39 41.39350 -70.67806 6592 ft 174 kts 88°
2026-04-29 03:40 41.39414 -70.66194 6267 ft 174 kts 88°
2026-04-29 03:40 41.39478 -70.64587 5942 ft 174 kts 88°
2026-04-29 03:40 41.39543 -70.62984 5618 ft 173 kts 87°
2026-04-29 03:40 41.39877 -70.61462 5278 ft 174 kts 60°
2026-04-29 03:41 41.40674 -70.60269 4942 ft 174 kts 36°
2026-04-29 03:41 41.41678 -70.59382 4631 ft 172 kts 34°
2026-04-29 03:41 41.42654 -70.58492 4404 ft 168 kts 34°
2026-04-29 03:41 41.43609 -70.57622 4183 ft 165 kts 34°
2026-04-29 03:42 41.44541 -70.56772 3967 ft 164 kts 34°
2026-04-29 03:42 41.45476 -70.55918 3751 ft 162 kts 34°
2026-04-29 03:42 41.46409 -70.55066 3536 ft 162 kts 34°
2026-04-29 03:42 41.47338 -70.54217 3319 ft 161 kts 34°
2026-04-29 03:43 41.48265 -70.53370 3105 ft 161 kts 34°
2026-04-29 03:43 41.49178 -70.52536 2894 ft 161 kts 34°
2026-04-29 03:43 41.50096 -70.51695 2680 ft 160 kts 34°
2026-04-29 03:43 41.51018 -70.50852 2467 ft 160 kts 34°
2026-04-29 03:44 41.51936 -70.50011 2253 ft 160 kts 34°
2026-04-29 03:44 41.52855 -70.49171 2040 ft 160 kts 34°
2026-04-29 03:44 41.53740 -70.48283 1885 ft 156 kts 47°
2026-04-29 03:44 41.54398 -70.47224 1878 ft 146 kts 50°
2026-04-29 03:45 41.55051 -70.46213 1873 ft 141 kts 50°
2026-04-29 03:45 41.55684 -70.45226 1871 ft 139 kts 50°
2026-04-29 03:45 41.56303 -70.44254 1871 ft 137 kts 50°
2026-04-29 03:45 41.56903 -70.43309 1872 ft 128 kts 50°
2026-04-29 03:46 41.57472 -70.42420 1871 ft 123 kts 50°
2026-04-29 03:46 41.58009 -70.41579 1895 ft 113 kts 50°
2026-04-29 03:46 41.58509 -70.40798 1890 ft 108 kts 50°
2026-04-29 03:46 41.58990 -70.40043 1889 ft 105 kts 50°
2026-04-29 03:47 41.59458 -70.39309 1882 ft 105 kts 50°
2026-04-29 03:47 41.59927 -70.38572 1884 ft 104 kts 50°
2026-04-29 03:47 41.60393 -70.37836 1882 ft 103 kts 50°
2026-04-29 03:47 41.60858 -70.37105 1880 ft 103 kts 50°
2026-04-29 03:48 41.61320 -70.36379 1877 ft 100 kts 50°
2026-04-29 03:48 41.61759 -70.35686 1871 ft 95 kts 49°
2026-04-29 03:48 41.62177 -70.35029 1871 ft 91 kts 50°
2026-04-29 03:48 41.62577 -70.34401 1827 ft 87 kts 50°
2026-04-29 03:49 41.62984 -70.33762 1666 ft 90 kts 50°
2026-04-29 03:49 41.63377 -70.33127 1511 ft 91 kts 51°
2026-04-29 03:49 41.63777 -70.32474 1352 ft 91 kts 50°
2026-04-29 03:49 41.64178 -70.31838 1203 ft 82 kts 50°
2026-04-29 03:50 41.64537 -70.31288 994 ft 78 kts 48°
2026-04-29 03:50 41.64896 -70.30748 769 ft 78 kts 52°
2026-04-29 03:50 41.65230 -70.30189 592 ft 77 kts 49°
2026-04-29 03:50 41.65602 -70.29635 451 ft 81 kts 49°
2026-04-29 03:51 41.65974 -70.29049 309 ft 84 kts 51°
2026-04-29 03:51 41.66353 -70.28449 128 ft 81 kts 50°
2026-04-29 03:51 41.66686 -70.27910 52 ft 62 kts 51°
2026-04-29 03:51 41.66880 -70.27616 50 ft 33 kts 48°
2026-04-29 03:52 41.67020 -70.27399 49 ft 30 kts 48°
2026-04-29 03:52 41.67118 -70.27295 50 ft 9 kts 310°
2026-04-29 03:52 41.67157 -70.27346 49 ft 0 kts 316°
2026-04-29 03:52 41.67168 -70.27378 49 ft 13 kts 272°
2026-04-29 03:53 41.67125 -70.27456 50 ft 11 kts 229°
2026-04-29 03:53 41.67069 -70.27538 50 ft 12 kts 227°
2026-04-29 03:53 41.67013 -70.27630 50 ft 13 kts 232°
2026-04-29 03:53 41.66952 -70.27727 51 ft 14 kts 229°
2026-04-29 03:54 41.66886 -70.27828 51 ft 15 kts 230°
2026-04-29 03:54 41.66823 -70.27936 52 ft 14 kts 246°
2026-04-29 03:54 41.66827 -70.28066 52 ft 14 kts 276°
2026-04-29 03:54 41.66841 -70.28198 50 ft 14 kts 278°
2026-04-29 03:55 41.66856 -70.28329 51 ft 14 kts 278°
2026-04-29 03:55 41.66865 -70.28460 57 ft 14 kts 277°
2026-04-29 03:55 41.66881 -70.28589 57 ft 15 kts 276°
2026-04-29 03:55 41.66897 -70.28729 57 ft 16 kts 274°
2026-04-29 03:56 41.66908 -70.28874 57 ft 16 kts 277°
2026-04-29 03:56 41.66920 -70.29021 57 ft 11 kts 276°
2026-04-29 03:56 41.66921 -70.29075 57 ft 7 kts 258°
2026-04-29 03:56 41.66938 -70.29096 55 ft 7 kts 36°
2026-04-29 03:57 41.66945 -70.29082 58 ft 0 kts 63°